sat.trackr.live / text

‹ back to catalog

STARLINK-34226

NORAD 64494 · 2025-133Y

PAYLOAD ACTIVE UNKNOWN

§ Identity

Operator
Country
US
Launch date
2025-06-23
Launch site
AFETR
Launch vehicle
Mass (kg)
RCS (m²)

Purposes: comms

External: N2YO · Heavens-Above · Gunter

§ Orbital elements

Epoch: 2026-05-25T04:50:42.957312Z

Period
94.10 min
Inclination
53.1590°
Eccentricity
0.0001482
Mean motion
15.30213729 rev/d
Perigee alt
474.2 km
Apogee alt
476.2 km
Semi-major
6,853.3 km
B*
3.4835e-4
RAAN
121.3365°
Arg perigee
94.8704°
Mean anomaly
265.2466°
Rev number
5,273

§ Raw data

STARLINK-342261 64494U 25133Y   26145.20188608  .00009976  00000+0  34835-3 0  99982 64494  53.1590 121.3365 0001482  94.8704 265.2466 15.30213729 52731

JSON: /api/v1/satellites/64494 · /tle

For live sub-satellite position, see the globe view (requires WebGL).

§ Visibility from observer

Set your observer location to see the next 7 days of passes ≥ 10°. The values pass through the URL so the page stays shareable.

No JS? Fill the form by hand. The geolocation button needs JavaScript.